Regional Weather Roundup
Issued by NWS

Home | Current Version | Previous Version | Graphics & Text | Print | Product List | Glossary On
Versions: 1 2 3 4 5 6 7 8 9 10 11 12 13 14 15 16 17 18 19 20 21 22 23 24 25 26 27 28 29 30 31 32 33 34 35 36 37 38 39 40 41 42 43 44 45 46 47 48 49 50
455
ASUS45 KBOU 300010
RWRCO

WEATHER ROUNDUP FOR COLORADO
NATIONAL WEATHER SERVICE DENVER/BOULDER CO
600 PM MDT THU SEP 29 2016

NOTE: "FAIR" INDICATES FEW OR NO CLOUDS BELOW 12000 FEET WITH NO
SIGNIFICANT WEATHER AND/OR OBSTRUCTIONS TO VISIBILITY.

COZ001>005-013-030-031-300100-
...NORTHWEST COLORADO...

CITY           SKY/WX    TMP DP  RH WIND       PRES   REMARKS
CRAIG          CLOUDY    60  51  72 E6        30.38F
HAYDEN         MOCLDY    59  45  58 N3        30.40F
MEEKER         CLOUDY    61  53  75 CALM      30.39F
MOUNT WERNER   NOT AVBL
STEAMBOAT SPGS FAIR      60  48  64 CALM      30.42R
WALDEN           N/A     59  32  36 W7        30.47R
$$

COZ006>008-011-300100-
...WEST CENTRAL VALLEYS...

CITY           SKY/WX    TMP DP  RH WIND       PRES   REMARKS
GRAND JUNCTION FAIR      64  55  72 CALM      30.33F
MONTROSE       CLOUDY    63  46  54 N9        30.41R
EAGLE          CLEAR     66  43  42 W6        30.39R
RIFLE          LGT RAIN  66  52  60 CALM      30.35F
DELTA          PTSUNNY   66  56  70 CALM      30.37S
NUCLA          DRIZZLE   59  54  82 NW5       30.45F
$$

COZ017>023-064>068-300100-
...SOUTHWEST COLORADO...

CITY           SKY/WX    TMP DP  RH WIND       PRES   REMARKS
DURANGO        CLOUDY    55  50  83 N7        30.47F
CORTEZ         PTSUNNY   58  52  80 CALM      30.42F
PAGOSA SPRINGS FAIR      57  43  59 W7        30.51F
TELLURIDE      RAIN      50  43  77 CALM      30.58S
WOLF CREEK PAS MOCLDY    39  36  87 SW9       30.75S
$$

COZ009-010-012-014-032>034-037-058>063-300100-
...CENTRAL COLORADO...

CITY           SKY/WX    TMP DP  RH WIND       PRES   REMARKS
ASPEN          CLOUDY    62  41  46 N7        30.43R
BUENA VISTA    CLOUDY    67  25  20 SE12      30.42F
COPPER MTN     CLOUDY    54  32  43 SE3       30.70F
BERTHOUD PASS  CLOUDY    43  28  56 E6        30.74S
COTTONWOOD PAS CLOUDY    61  21  21 SE15G23   30.56S
GUNNISON       MOCLDY    64  39  39 SW12      30.43S
KREMMLING      CLOUDY    64  32  29 NW5       30.41S
LEADVILLE      CLOUDY    57  28  33 W3        30.54F
MONARCH PASS   CLOUDY    46  28  49 S15G22    30.80F
SALIDA         FAIR      70  27  20 S9G20     30.48R
SUNLIGHT       MOCLDY    46  43  87 SW12      30.66R
WILKERSON PASS FAIR      52  23  32 SW7G16    30.68S
$$

COZ069>075-300100-
...SAN LUIS VALLEY/SANGRE DE CRISTO MOUNTAINS...

CITY           SKY/WX    TMP DP  RH WIND       PRES   REMARKS
ALAMOSA        FAIR      70  32  24 SW10      30.41R
LA VETA PASS   FAIR      54  28  37 MISG      30.60S
SAGUACHE       MOCLDY    64  36  34 W10       30.46S
$$

COZ035-036-038>040-300100-
...NORTHERN COLORADO FRONT RANGE...

CITY           SKY/WX    TMP DP  RH WIND       PRES   REMARKS
DENVER INTL AP FAIR      77  40  26 NW14      30.22R
DMNS CITY PARK   N/A     75  39  27 NW5       30.23S
AURORA         PTCLDY    78  31  18 S15       30.24S
FRONT RANGE AP PTCLDY    82  28  14 S14G23    30.24S
ERIE MUNI ARPT FAIR      73  37  26 W5        30.21F
BOULDER MUN AP FAIR      73  39  29 W3        30.22F
CENTENNIAL     FAIR      77  31  18 S14       30.25S
BROOMFIELD     PTCLDY    73  37  27 NW9       30.26S
FORT COLLINS   FAIR      73  41  31 NW8       30.18F
LONGMONT       FAIR      75  46  36 CALM      30.22F
$$

COZ041-046-047-076>085-087-088-300100-
...PIKES PEAK/PALMER DIVIDE AND SOUTHERN FOOTHILLS...

CITY           SKY/WX    TMP DP  RH WIND       PRES   REMARKS
COLO. SPRINGS  FAIR      75  30  19 SE16      30.33S
A. F. ACADEMY  FAIR      73  32  22 S15G22    30.33F
SCHRIEVER AFB  NOT AVBL
ELLICOTT       NOT AVBL
FALCON         FAIR      71  29  20 S10G18    30.38F
FORT CARSON    FAIR      77  32  19 SE13      30.30S
LIMON          FAIR      75  32  20 S12G22    30.29S
MONUMENT HILL  FAIR      68  32  26 S25       30.37S
TRINIDAD       FAIR      76  35  22 S13       30.31S
$$

COZ042>045-048>051-090-091-300100-
...NORTHEAST COLORADO...

CITY           SKY/WX    TMP DP  RH WIND       PRES   REMARKS
GREELEY ARPT   FAIR      82  37  20 SE9       30.17S
AKRON          FAIR      74  40  29 SE22      30.25S
BURLINGTON     FAIR      71  39  31 SE18      30.29S
WRAY           NOT AVBL
STERLING       FAIR      77  43  29 S17       30.20S
HOLYOKE        FAIR      73  41  31 SE15      30.27R
FORT MORGAN    FAIR      78  36  21 SE14G20   30.20S
$$

COZ086-089-092>099-300100-
...SOUTHEAST COLORADO...

CITY           SKY/WX    TMP DP  RH WIND       PRES   REMARKS
PUEBLO         FAIR      82  37  20 SE10      30.21S
LA JUNTA       FAIR      83  42  23 SE18      30.21S
LAMAR          FAIR      78  43  28 SE17G23   30.22F
SPRINGFIELD      N/A     72  44  36 S16       30.30S
$$




USA.gov is the U.S. government's official web portal to all federal, state and local government web resources and services.